Tracking 21045 objects as of 3-Aug-2020
HD Live streaming from Space Station
objects crossing your sky now

COSMOS 397 DEB

Track COSMOS 397 DEB now!
10-day predictions


NORAD ID: 5017
Int'l Code: 1971-015L
Perigee: 558.5 km
Apogee: 1,705.0 km
Inclination: 65.7 °
Period: 107.8 minutes
Semi major axis: 7502 km
RCS: 0.3524 m2 (medium)
Launch date: February 25, 1971
Source: Commonwealth of Independent States (former USSR) (CIS)
Launch site: TYURATAM MISSILE AND SPACE COMPLEX (TTMTR)

Note: This is SATELLITE DEBRIS
aabbcc
Your satellite tracking list
Your tracking list is empty




NASA's NSSDC Master Catalog

Two Line Element Set (TLE):
1  5017U 71015L   20216.10235890  .00000098  00000-0  67340-4 0  9997
2  5017  65.7129 117.0160 0764067   4.6209 356.1380 13.35899433352411
Source of the keplerian elements: AFSPC